Wind_Speed
29 29 29 28 28 27 27 27 26 25 25 23 22 21 21 20 18 17 14 13 12 12 11 9 9 9 9 9 8 9 9 10 11 11 12 14 15 16 16 17 18 19 20 20
31 31 31 30 30 30 30 30 29 29 29 26 25 24 22 21 20 18 17 15 15 14 13 12 11 11 11 11 10 10 10 11 12 11 12 13 15 16 17 17 18 20 21 21
35 34 33 33 32 33 33 33 31 30 30 30 29 27 25 23 23 21 20 19 16 16 16 15 13 14 13 12 12 12 12 12 12 12 12 13 14 16 17 18 19 19 19 20
36 36 37 36 35 35 35 34 33 32 31 30 29 28 27 26 26 24 23 20 19 18 18 17 16 16 15 14 14 14 13 14 14 14 14 14 15 17 18 19 19 19 20 20
35 35 35 36 36 35 36 36 35 33 31 30 30 29 29 28 28 27 25 24 22 21 20 19 19 18 17 17 16 16 16 16 16 16 16 16 17 18 18 19 20 20 21 22
35 34 34 33 34 36 36 36 35 34 32 31 31 31 30 29 29 27 27 26 24 22 22 20 19 19 19 19 19 18 18 18 17 17 17 17 18 19 19 20 21 22 23 24
35 34 33 31 31 33 35 35 33 33 33 32 33 32 31 30 30 29 29 27 26 26 24 23 22 22 22 21 20 20 19 19 18 18 19 20 20 20 21 21 22 23 24 24
33 33 32 30 30 31 33 33 33 32 32 31 31 30 30 29 29 30 30 29 29 27 25 24 23 23 22 22 22 21 19 18 18 20 19 19 21 22 22 23 23 24 25 26
32 31 30 29 29 31 32 32 32 32 32 30 29 28 29 29 30 29 29 29 28 26 25 25 24 23 23 22 22 21 21 21 22 21 22 23 22 22 22 24 24 25 27 28
31 30 29 28 28 29 30 30 31 31 29 29 28 28 28 28 28 28 27 27 26 25 24 24 24 24 24 24 23 22 23 23 23 23 23 23 25 25 25 25 26 28 29 30
29 29 27 27 27 27 27 28 27 27 27 27 28 28 28 27 26 26 25 24 23 23 22 21 21 22 22 22 22 22 22 22 23 24 24 25 26 26 26 27 28 28 30 31
26 25 26 25 26 26 25 25 25 25 25 25 25 25 24 24 24 23 23 22 23 23 22 21 21 21 21 22 23 23 23 23 23 24 25 26 27 27 28 29 30 29 30 31
25 24 24 24 24 24 24 23 23 23 23 23 23 22 21 22 21 21 20 21 20 21 22 22 21 22 22 22 22 22 23 23 24 25 25 26 27 27 27 28 29 30 30 30
24 24 23 23 23 22 22 22 21 20 20 20 21 21 20 19 19 19 19 19 19 20 21 21 22 22 23 23 22 23 23 23 24 24 24 24 25 25 26 27 28 28 29 30
21 22 21 21 21 21 20 19 19 18 18 18 18 18 17 17 16 17 17 17 18 18 19 19 20 21 21 22 22 22 23 23 23 22 22 22 23 23 24 25 27 28 30 31
18 18 18 19 19 19 19 18 17 16 15 14 14 14 14 14 14 14 15 15 15 16 17 18 18 18 18 18 18 19 20 20 20 20 20 21 22 23 25 26 28 30 31 32
16 16 16 17 17 16 15 15 14 14 13 13 13 12 13 13 13 13 12 13 14 14 14 14 14 15 15 16 17 18 18 19 19 19 21 22 24 25 26 28 29 31 33 35
14 14 13 13 13 13 13 13 14 13 13 12 12 12 12 12 12 12 13 12 13 13 14 14 14 14 15 16 16 17 17 18 19 19 21 22 24 26 28 30 32 34 36 38
12 11 11 11 11 11 11 11 12 12 11 11 11 11 11 11 11 12 12 13 12 12 12 12 12 12 13 14 14 15 17 18 19 21 22 24 26 28 30 32 34 36 37 38
11 11 11 11 11 11 11 10 10 10 10 10 10 10 10 10 11 10 10 11 10 10 10 10 11 12 13 14 15 17 18 20 22 24 25 27 29 31 32 33 34 36 37 38
10 10 11 11 11 10 10 10 10 10 10 10 10 9 8 9 9 8 8 8 8 8 9 10 12 13 14 15 17 19 20 22 24 26 27 29 30 31 33 34 35 36 37 37
11 10 10 10 10 10 9 10 10 10 10 9 9 8 7 7 7 7 7 8 8 9 11 12 14 15 17 18 20 21 23 24 26 27 29 30 31 32 34 35 35 35 36 36
11 10 10 10 10 9 9 9 8 8 8 8 7 6 6 7 7 7 8 9 10 12 13 15 17 19 20 22 23 24 25 26 28 29 30 31 32 33 34 34 34 34 34 34
11 10 10 10 9 9 9 9 8 7 7 7 7 7 7 8 9 10 11 12 14 16 17 19 20 22 23 24 25 26 27 28 29 30 31 32 32 32 32 32 32 32 32 31
11 10 9 9 8 8 8 7 7 7 6 7 8 8 9 11 12 13 14 16 17 19 20 21 22 23 24 25 26 27 28 29 29 30 30 30 30 30 30 29 29 29 29 28
11 10 8 7 7 7 7 7 8 8 8 9 10 11 12 14 15 16 18 19 20 21 22 23 24 25 26 26 26 27 27 28 28 28 28 28 28 28 28 28 27 27 27 27
10 9 8 7 7 7 8 8 9 10 11 11 12 13 15 16 18 19 20 21 21 22 22 23 24 25 25 26 26 26 26 26 27 27 26 26 26 26 26 25 25 25 26 26
Wind_Direction
228 226 227 231 235 239 241 244 247 249 250 252 254 258 265 269 274 274 273 277 280 289 289 289 289 284 281 276 271 266 258 252 245 242 243 239 234 231 230 232 233 231 234 240
231 230 231 235 239 241 242 244 247 248 249 252 257 260 264 269 274 274 274 278 278 282 284 284 282 283 278 272 267 263 260 253 246 244 245 243 236 234 235 237 238 240 241 243
235 237 237 238 240 242 244 245 247 249 251 255 259 263 265 269 274 278 280 280 276 280 281 277 274 271 272 270 267 266 262 258 253 251 250 248 241 241 241 241 242 243 244 244
238 240 240 240 241 243 246 248 248 250 253 256 259 264 264 267 273 277 279 277 275 277 277 274 271 267 265 265 264 264 264 263 258 257 255 254 252 249 250 247 245 245 248 249
237 239 239 239 241 244 247 248 249 251 254 258 258 261 264 267 272 276 276 275 275 274 270 268 267 265 262 264 264 264 264 265 262 261 261 260 257 254 256 250 250 252 254 256
240 240 240 238 240 243 245 248 249 251 256 258 259 260 262 266 269 271 273 274 273 273 271 269 266 264 263 267 263 262 264 264 260 258 259 260 258 259 259 257 256 258 258 259
241 242 242 240 240 242 244 246 250 252 255 257 260 262 263 264 265 268 270 271 271 271 268 267 267 266 264 264 262 260 262 261 260 262 260 261 260 260 259 258 258 260 261 263
239 242 244 243 242 243 246 247 250 253 255 257 260 262 264 264 265 266 267 269 271 268 264 264 264 263 263 263 262 258 259 261 263 265 266 267 266 263 260 261 259 262 264 266
240 242 244 244 244 245 246 248 250 253 256 256 259 260 263 263 264 264 264 266 268 266 261 260 260 260 260 262 260 257 260 263 265 269 270 268 268 266 267 268 268 269 270 271
240 242 243 244 244 245 247 251 252 255 255 255 258 261 264 263 261 262 264 265 265 263 260 258 257 256 258 261 260 260 260 262 265 270 274 274 272 268 269 272 274 275 275 275
238 238 242 245 246 249 251 253 255 256 256 256 258 260 262 261 261 261 263 260 259 257 256 257 258 257 256 256 258 261 262 263 267 271 274 276 275 271 273 276 276 277 277 277
239 240 243 246 249 251 251 252 253 255 256 256 258 260 259 259 259 260 259 257 256 256 257 257 257 257 256 257 259 261 262 265 268 271 274 276 276 275 276 276 277 277 276 276
240 243 245 247 250 252 251 254 254 255 256 256 257 258 256 256 255 254 254 255 256 256 256 257 259 260 261 261 262 265 267 269 271 273 275 277 277 276 276 278 279 278 278 279
243 244 245 247 248 251 253 253 253 254 256 256 256 257 255 253 251 252 252 253 254 254 255 257 259 259 261 262 264 267 270 272 272 273 276 277 277 276 277 278 279 279 281 283
243 243 245 247 249 250 249 248 249 251 254 254 253 249 248 248 248 249 248 250 253 254 255 256 257 259 262 261 264 268 271 273 273 275 276 276 276 276 278 281 282 284 286 287
242 244 245 247 249 249 248 246 245 244 245 246 243 243 243 243 243 242 243 245 248 249 251 253 256 259 262 262 265 267 270 272 273 274 276 277 278 280 282 284 286 286 287 287
240 243 244 244 243 242 240 236 235 237 238 236 238 236 234 235 237 239 241 242 247 250 250 249 254 260 263 265 267 268 270 273 276 278 280 282 284 285 286 288 287 287 289 290
237 236 235 232 230 228 227 228 228 228 228 228 227 225 226 230 235 237 240 242 246 250 254 256 259 261 263 266 267 270 275 276 279 281 282 284 286 288 289 289 290 291 293 295
224 224 222 217 213 213 212 213 216 217 219 219 221 223 226 232 234 232 235 240 245 252 254 254 257 259 262 266 271 275 277 279 281 282 285 288 290 291 292 293 294 295 296 297
213 209 205 205 204 200 196 199 203 204 206 207 211 215 219 223 224 226 227 231 237 244 249 254 260 265 269 273 277 280 282 284 286 288 290 291 293 294 295 296 297 298 298 299
199 195 195 196 194 193 194 200 204 204 202 202 202 205 212 219 225 230 235 243 249 254 260 267 271 273 275 279 282 285 287 289 290 291 293 294 295 296 297 298 299 299 300 300
185 183 184 184 186 187 190 193 195 198 200 202 207 213 219 223 228 236 246 256 265 271 276 281 282 283 285 288 290 291 292 293 294 294 295 296 297 298 298 299 300 300 300 301
176 179 180 180 180 183 186 188 189 194 201 207 210 216 226 235 244 252 260 267 273 279 283 286 288 288 289 290 291 292 293 294 294 295 295 296 297 298 299 300 301 301 302 303
173 177 179 181 182 186 191 196 200 202 209 216 222 230 241 253 261 266 271 277 282 284 286 287 288 289 290 292 293 294 294 295 295 295 296 297 298 299 300 301 302 303 304 304
172 172 173 175 178 180 181 187 197 208 222 235 245 253 260 266 271 276 279 282 283 284 286 286 288 290 293 294 294 294 295 295 296 296 297 298 299 301 302 303 304 305 306 306
174 175 175 178 186 196 204 211 222 236 249 257 261 265 271 275 278 281 282 283 284 285 287 289 291 293 294 295 296 296 296 297 298 299 299 300 300 302 303 304 305 306 307 307
184 187 190 197 207 214 223 236 247 255 262 267 270 275 279 282 283 284 285 286 287 288 291 293 294 294 295 296 296 297 298 299 300 300 301 301 301 302 304 305 306 307 308 309
Height
5810 5813 5815 5817 5820 5821 5822 5823 5825 5826 5826 5827 5828 5829 5830 5831 5831 5832 5833 5834 5833 5834 5834 5833 5833 5833 5833 5833 5832 5832 5832 5833 5833 5834 5834 5835 5836 5837 5838 5840 5841 5842 5843 5844
5803 5806 5809 5812 5814 5816 5817 5818 5819 5820 5821 5822 5823 5824 5824 5826 5827 5828 5828 5829 5829 5830 5830 5829 5829 5829 5830 5830 5830 5830 5830 5830 5830 5831 5831 5832 5832 5834 5835 5836 5837 5838 5839 5840
5797 5799 5803 5806 5808 5809 5810 5811 5813 5814 5816 5817 5818 5819 5820 5821 5822 5822 5823 5824 5825 5825 5825 5825 5825 5826 5826 5827 5827 5827 5827 5827 5828 5828 5828 5828 5828 5830 5831 5832 5833 5834 5835 5836
5790 5794 5795 5800 5800 5801 5802 5804 5806 5808 5810 5811 5813 5814 5815 5815 5816 5817 5818 5818 5819 5820 5820 5820 5821 5821 5822 5823 5823 5824 5824 5824 5824 5825 5825 5825 5825 5826 5827 5828 5829 5829 5830 5830
5782 5784 5787 5791 5792 5794 5796 5797 5800 5802 5804 5805 5806 5808 5809 5809 5810 5811 5812 5812 5813 5813 5814 5814 5815 5816 5816 5818 5819 5819 5820 5820 5820 5821 5821 5821 5821 5822 5822 5822 5823 5824 5825 5825
5774 5777 5779 5784 5786 5786 5789 5790 5792 5795 5797 5798 5800 5801 5803 5804 5804 5805 5805 5806 5806 5806 5807 5808 5809 5810 5811 5812 5813 5814 5815 5815 5815 5816 5816 5816 5816 5816 5816 5817 5818 5818 5819 5819
5765 5768 5771 5775 5777 5780 5783 5784 5786 5787 5789 5791 5792 5793 5795 5796 5798 5798 5799 5799 5798 5799 5800 5802 5803 5805 5806 5806 5807 5808 5809 5809 5810 5810 5811 5810 5810 5811 5811 5811 5812 5812 5812 5812
5758 5761 5765 5768 5770 5773 5774 5777 5779 5780 5782 5783 5784 5785 5786 5788 5789 5791 5792 5792 5792 5793 5793 5795 5797 5798 5799 5800 5801 5801 5802 5803 5804 5804 5804 5804 5805 5805 5805 5805 5805 5805 5805 5805
5752 5756 5757 5760 5762 5764 5766 5769 5771 5773 5774 5776 5777 5778 5779 5781 5782 5783 5784 5785 5785 5786 5787 5788 5790 5792 5793 5794 5795 5795 5796 5797 5798 5798 5798 5799 5798 5798 5799 5799 5799 5798 5798 5797
5744 5747 5749 5752 5755 5757 5759 5762 5764 5766 5767 5769 5770 5771 5772 5772 5774 5775 5777 5778 5778 5778 5780 5781 5783 5785 5786 5788 5789 5790 5790 5791 5792 5792 5792 5792 5792 5791 5792 5792 5791 5791 5790 5789
5737 5740 5742 5745 5748 5750 5752 5755 5756 5758 5760 5761 5762 5763 5764 5765 5766 5768 5769 5771 5772 5772 5773 5775 5776 5777 5779 5781 5783 5784 5784 5785 5785 5785 5785 5785 5784 5784 5784 5784 5784 5783 5782 5781
5731 5734 5736 5739 5741 5743 5745 5747 5749 5751 5752 5753 5755 5756 5757 5758 5759 5761 5762 5764 5765 5766 5767 5769 5770 5772 5773 5775 5776 5778 5778 5779 5779 5779 5779 5778 5778 5777 5777 5777 5776 5775 5774 5773
5725 5727 5730 5732 5734 5736 5739 5741 5742 5744 5745 5747 5748 5749 5750 5751 5753 5755 5756 5758 5759 5760 5762 5763 5764 5766 5767 5769 5770 5771 5772 5772 5772 5772 5772 5771 5771 5770 5769 5768 5767 5766 5765 5763
5719 5722 5724 5726 5728 5730 5732 5734 5735 5737 5738 5740 5741 5743 5744 5745 5747 5748 5750 5752 5753 5755 5756 5757 5758 5759 5761 5762 5763 5764 5765 5765 5765 5765 5764 5764 5763 5762 5761 5760 5759 5757 5756 5754
5713 5716 5718 5720 5722 5724 5726 5728 5730 5731 5732 5734 5735 5736 5738 5740 5741 5743 5745 5746 5748 5749 5750 5751 5753 5754 5755 5756 5757 5758 5758 5758 5758 5758 5757 5757 5756 5755 5753 5752 5751 5749 5747 5745
5708 5711 5713 5715 5716 5718 5720 5722 5724 5726 5727 5729 5730 5732 5733 5735 5737 5738 5740 5741 5743 5744 5745 5746 5747 5748 5749 5750 5751 5751 5752 5752 5751 5751 5750 5750 5748 5747 5746 5744 5743 5741 5738 5736
5704 5706 5708 5710 5711 5713 5715 5717 5719 5721 5722 5724 5726 5728 5730 5731 5733 5734 5736 5737 5739 5740 5741 5741 5743 5744 5744 5745 5745 5746 5746 5746 5745 5744 5743 5742 5741 5739 5738 5736 5734 5731 5728 5725
5700 5702 5704 5706 5708 5710 5712 5714 5716 5717 5719 5721 5723 5725 5727 5728 5730 5731 5732 5733 5735 5736 5737 5737 5739 5739 5740 5740 5740 5740 5740 5739 5739 5738 5736 5735 5733 5732 5729 5727 5724 5720 5717 5713
5696 5698 5700 5702 5705 5707 5709 5711 5713 5715 5717 5718 5720 5722 5724 5725 5727 5728 5729 5730 5731 5732 5733 5734 5735 5735 5735 5735 5735 5735 5734 5733 5732 5731 5729 5727 5725 5723 5720 5717 5713 5710 5706 5701
5694 5696 5698 5700 5703 5705 5708 5710 5711 5713 5715 5716 5718 5720 5721 5723 5724 5725 5726 5727 5728 5729 5729 5730 5730 5731 5730 5730 5729 5729 5728 5726 5725 5723 5721 5719 5716 5713 5710 5707 5703 5699 5695 5690
5692 5694 5697 5699 5701 5703 5706 5708 5710 5711 5713 5715 5716 5718 5719 5721 5722 5723 5724 5724 5725 5725 5726 5726 5726 5726 5726 5725 5724 5723 5721 5719 5717 5715 5713 5710 5707 5704 5700 5696 5692 5688 5684 5679
5691 5694 5696 5698 5700 5703 5705 5707 5709 5710 5712 5713 5715 5716 5718 5719 5720 5720 5721 5721 5722 5722 5722 5722 5722 5721 5720 5719 5718 5716 5714 5712 5710 5707 5704 5701 5697 5694 5690 5686 5682 5678 5673 5669
5691 5693 5695 5698 5700 5702 5704 5706 5708 5709 5711 5712 5714 5715 5716 5717 5717 5718 5718 5718 5718 5718 5717 5717 5716 5715 5713 5712 5710 5708 5706 5704 5701 5698 5695 5692 5688 5684 5680 5676 5672 5668 5664 5659
5690 5693 5695 5697 5699 5701 5703 5705 5707 5708 5709 5711 5712 5713 5714 5714 5714 5714 5714 5714 5714 5713 5712 5711 5710 5708 5707 5705 5702 5700 5697 5695 5692 5689 5685 5682 5678 5675 5671 5667 5663 5659 5655 5650
5691 5693 5695 5697 5699 5701 5703 5704 5706 5707 5708 5709 5710 5710 5711 5711 5711 5710 5710 5709 5708 5707 5706 5704 5703 5701 5699 5697 5694 5692 5689 5686 5683 5679 5676 5673 5669 5666 5662 5658 5654 5651 5647 5643
5691 5693 5695 5697 5698 5700 5701 5703 5704 5705 5706 5706 5706 5707 5707 5706 5706 5705 5704 5703 5702 5701 5699 5697 5695 5693 5691 5688 5686 5683 5680 5677 5674 5670 5667 5664 5660 5657 5654 5650 5647 5643 5639 5636
5691 5693 5694 5696 5697 5699 5700 5701 5702 5702 5703 5703 5703 5702 5702 5701 5700 5699 5698 5696 5695 5693 5691 5689 5687 5685 5682 5680 5677 5674 5671 5668 5665 5662 5659 5656 5653 5650 5647 5643 5640 5636 5632 5629